Weather History for KOFF - June, 2013

Change the Weather History Date:

Tuesday, June 11, 2013

  Actual Average Record
Temperature  
Mean Temperature 77 °F -  
Max Temperature 88 °F 78 °F - (-1)
Min Temperature 66 °F 60 °F - (-1)
Cooling Degree Days 12    
Growing Degree Days 27 (Base 50)    
Moisture  
Dew Point 69 °F    
Average Humidity 77    
Maximum Humidity 95    
Minimum Humidity 52    
Precipitation  
Precipitation 0.00 in - - ()
Sea Level Pressure  
Sea Level Pressure 29.76 in    
Wind  
Wind Speed 5 mph (ESE)    
Max Wind Speed 12 mph    
Max Gust Speed -    
Visibility 10 miles    
Events Rain    
Averages and records for this station are not official NWS values.
T = Trace of Precipitation, MM = Missing Value Source: NWS Daily Summary

Daily Weather History Graph

Daily Weather History Graph

Search for Another Location

Airport or City:

Trip Planner

Search our weather history database for the weather conditions in past years. The results will help you decide how hot, cold, wet, or windy it might be!

Date:

Astronomy

Jun. 11, 2013 Rise Set
Actual Time 5:50 AM CDT 8:56 PM CDT
Civil Twilight 5:17 AM CDT 9:29 PM CDT
Nautical Twilight 4:34 AM CDT 10:12 PM CDT
Astronomical Twilight 3:43 AM CDT 11:03 PM CDT
Moon 8:35 AM CDT (6/11) 10:58 PM CDT (6/11)
Length of Visible Light 16h 12m
Length of Day
15h 05m
Waxing Crescent, 8% of the Moon is Illuminated
Jun 11
Waxing Crescent
Jun 16
First Quarter
Jun 23
Full
Jun 29
Last Quarter
Jul 8
New

Hourly Weather History & Observations

Time (CDT) Temp. Heat Index Dew Point Humidity Pressure Visibility Wind Dir Wind Speed Gust Speed Precip Events Conditions
12:58 AM 67.3 °F - 65.5 °F 94% 29.83 in 10.0 mi East 3.5 mph - N/A   Clear
1:58 AM 69.1 °F - 64.6 °F 86% 29.81 in 10.0 mi East 3.5 mph - N/A   Clear
2:58 AM 70.2 °F - 63.9 °F 80% 29.78 in 10.0 mi ESE 6.9 mph - N/A   Clear
3:58 AM 69.8 °F - 64.0 °F 82% 29.75 in 10.0 mi SE 6.9 mph - N/A   Clear
4:58 AM 67.5 °F - 64.4 °F 90% 29.75 in 10.0 mi ESE 3.5 mph - N/A   Clear
5:58 AM 66.4 °F - 64.9 °F 95% 29.73 in 10.0 mi NE 5.8 mph - N/A   Clear
6:58 AM 68.0 °F - 65.7 °F 92% 29.75 in 10.0 mi NNE 2.3 mph - N/A   Clear
8:58 AM 71.6 °F - 68.4 °F 89% 29.74 in 10.0 mi NE 5.8 mph - N/A   Clear
9:58 AM 73.4 °F - 69.3 °F 87% 29.76 in 10.0 mi East 5.8 mph - N/A   Clear
10:58 AM 74.1 °F - 70.3 °F 88% 29.76 in 10.0 mi South 11.5 mph - N/A   Clear
11:21 AM 75.2 °F - 71.6 °F 89% 29.78 in 10.0 mi Variable 4.6 mph - N/A   Light Drizzle
11:29 AM 75.2 °F - 71.6 °F 89% 29.76 in 10.0 mi SSE 5.8 mph - N/A   Clear
11:37 AM 75.2 °F - 71.6 °F 89% 29.77 in 10.0 mi North 4.6 mph - N/A   Light Drizzle
11:46 AM 75.2 °F - 69.8 °F 83% 29.77 in 10.0 mi SSW 1.2 mph - N/A   Clear
11:58 AM 76.1 °F - 70.7 °F 83% 29.77 in 10.0 mi NNE 4.6 mph - 0.00 in   Partly Cloudy
12:58 PM 77.9 °F - 71.4 °F 80% 29.78 in 10.0 mi East 3.5 mph - N/A   Scattered Clouds
1:26 PM 80.6 °F 84.6 °F 71.6 °F 74% 29.83 in 10.0 mi Calm Calm - N/A Rain Light Rain
1:37 PM 80.6 °F 84.6 °F 71.6 °F 74% 29.81 in 10.0 mi ESE 4.6 mph - N/A   Partly Cloudy
1:51 PM 78.8 °F - 73.4 °F 83% 29.82 in 10.0 mi SE 4.6 mph - N/A Rain Light Rain
1:58 PM 79.0 °F - 73.0 °F 82% 29.80 in 10.0 mi SE 5.8 mph - 0.00 in Rain Light Rain
2:02 PM 78.8 °F - 73.4 °F 83% 29.79 in 10.0 mi ESE 6.9 mph - N/A   Partly Cloudy
2:58 PM 78.4 °F - 73.6 °F 85% 29.75 in 10.0 mi East 8.1 mph - 0.00 in   Clear
3:58 PM 81.5 °F 84.9 °F 69.8 °F 67% 29.74 in 10.0 mi Variable 3.5 mph - N/A   Partly Cloudy
4:58 PM 81.1 °F 84.4 °F 69.3 °F 67% 29.72 in 10.0 mi Variable 3.5 mph - N/A   Clear
5:32 PM 86.0 °F 90.4 °F 69.8 °F 58% 29.73 in 10.0 mi Variable 2.3 mph - N/A   Light Drizzle
5:36 PM 86.0 °F 90.4 °F 69.8 °F 58% 29.73 in 10.0 mi SE 2.3 mph - N/A   Clear
5:58 PM 84.7 °F 89.1 °F 70.0 °F 61% 29.71 in 10.0 mi ESE 6.9 mph - 0.00 in   Clear
6:58 PM 88.5 °F 93.5 °F 69.8 °F 54% 29.71 in 10.0 mi SSE 3.5 mph - N/A   Clear
7:58 PM 84.9 °F 86.8 °F 65.7 °F 52% 29.71 in 10.0 mi ESE 6.9 mph - N/A   Clear
8:58 PM 80.2 °F 81.8 °F 63.9 °F 57% 29.70 in 10.0 mi SSE 6.9 mph - N/A   Clear
9:58 PM 79.3 °F - 64.2 °F 60% 29.72 in 10.0 mi SE 8.1 mph - N/A   Clear
10:58 PM 79.9 °F - 63.5 °F 57% 29.71 in 10.0 mi SE 9.2 mph - N/A   Clear
11:58 PM 78.4 °F - 64.6 °F 62% 29.71 in 10.0 mi SSE 10.4 mph - N/A   Clear